DLH4566 EDDS-EDDF

Flight info

Callsign DLH4566
Flight time 0h 36m
Altitude 22000
Route ETASA4B ETASA T163 SPESA SPESA5B
Aircraft A20N/M-SDE2E3FGHIRWXY/LB1

Departure

Time 2026-05-05 16:24
Airport Stuttgart Airport (EDDS)

Arrival

Time 2026-05-05 17:01
Airport Frankfurt Main Airport (EDDF)
Time Latitude Longitude Altitude Speed Heading
2026-05-05 16:00 48.68916 9.19587 1288 ft 0 kts 342°
2026-05-05 16:07 48.68907 9.19592 1289 ft 4 kts 342°
2026-05-05 16:08 48.68891 9.19599 1289 ft 4 kts 348°
2026-05-05 16:08 48.68869 9.19596 1287 ft 0 kts 72°
2026-05-05 16:10 48.68871 9.19632 1289 ft 7 kts 89°
2026-05-05 16:10 48.68874 9.19734 1287 ft 12 kts 77°
2026-05-05 16:11 48.68885 9.19798 1285 ft 1 kts 72°
2026-05-05 16:11 48.68851 9.19888 1285 ft 16 kts 149°
2026-05-05 16:12 48.68827 9.19996 1286 ft 9 kts 62°
2026-05-05 16:12 48.68886 9.20287 1285 ft 20 kts 74°
2026-05-05 16:13 48.68944 9.20602 1285 ft 14 kts 73°
2026-05-05 16:13 48.68998 9.20883 1287 ft 32 kts 74°
2026-05-05 16:13 48.69011 9.20955 1287 ft 4 kts 74°
2026-05-05 16:14 48.69058 9.21200 1285 ft 23 kts 73°
2026-05-05 16:14 48.69069 9.21253 1287 ft 5 kts 73°
2026-05-05 16:15 48.69110 9.21467 1290 ft 27 kts 74°
2026-05-05 16:15 48.69249 9.22193 1287 ft 41 kts 73°
2026-05-05 16:16 48.69389 9.22935 1288 ft 31 kts 73°
2026-05-05 16:16 48.69515 9.23600 1286 ft 26 kts 77°
2026-05-05 16:17 48.69396 9.23709 1289 ft 0 kts 221°
2026-05-05 16:18 48.69392 9.23702 1290 ft 3 kts 223°
2026-05-05 16:18 48.69376 9.23679 1287 ft 0 kts 224°
2026-05-05 16:22 48.69372 9.23673 1286 ft 0 kts 224°
2026-05-05 16:22 48.69237 9.23465 1286 ft 12 kts 240°
2026-05-05 16:23 48.69220 9.23412 1290 ft 0 kts 252°
2026-05-05 16:23 48.69215 9.23389 1287 ft 6 kts 252°
2026-05-05 16:24 48.69203 9.23328 1289 ft 12 kts 256°
2026-05-05 16:24 48.69081 9.22656 1285 ft 123 kts 255°
2026-05-05 16:24 48.68548 9.19979 2557 ft 174 kts 252°
2026-05-05 16:25 48.68151 9.18062 3746 ft 191 kts 253°
2026-05-05 16:25 48.67533 9.14622 5815 ft 195 kts 253°
2026-05-05 16:25 48.67133 9.12521 6427 ft 228 kts 253°
2026-05-05 16:26 48.68004 9.07738 7510 ft 272 kts 314°
2026-05-05 16:26 48.71575 9.05654 9407 ft 282 kts 339°
2026-05-05 16:27 48.73495 9.04658 10369 ft 302 kts 335°
2026-05-05 16:27 48.75543 9.03490 11141 ft 326 kts 335°
2026-05-05 16:27 48.77749 9.02275 11904 ft 348 kts 340°
2026-05-05 16:27 48.80192 9.01807 13039 ft 361 kts
2026-05-05 16:28 48.82706 9.02369 14168 ft 369 kts
2026-05-05 16:28 48.85219 9.03109 15160 ft 377 kts
2026-05-05 16:28 48.87840 9.03928 16203 ft 383 kts 10°
2026-05-05 16:28 48.90477 9.04759 17212 ft 390 kts 11°
2026-05-05 16:29 48.93150 9.05595 18181 ft 396 kts 11°
2026-05-05 16:29 48.95838 9.06428 19012 ft 402 kts 11°
2026-05-05 16:29 48.98590 9.07278 19501 ft 405 kts 11°
2026-05-05 16:29 49.01365 9.08135 19730 ft 407 kts 11°
2026-05-05 16:30 49.04147 9.08995 19824 ft 408 kts 11°
2026-05-05 16:30 49.06936 9.09858 19845 ft 408 kts 11°
2026-05-05 16:30 49.09714 9.10720 19846 ft 408 kts 11°
2026-05-05 16:30 49.12513 9.11588 19845 ft 419 kts 11°
2026-05-05 16:31 49.15450 9.12499 19842 ft 443 kts 11°
2026-05-05 16:31 49.18567 9.13468 19837 ft 468 kts 11°
2026-05-05 16:31 49.21803 9.14475 19839 ft 477 kts 11°
2026-05-05 16:31 49.25052 9.15487 19839 ft 477 kts 11°
2026-05-05 16:32 49.28303 9.16501 19834 ft 477 kts 11°
2026-05-05 16:32 49.31522 9.17508 19836 ft 477 kts 11°
2026-05-05 16:32 49.34778 9.18527 19837 ft 477 kts 11°
2026-05-05 16:32 49.37947 9.19521 19836 ft 477 kts 11°
2026-05-05 16:33 49.41204 9.20540 19832 ft 477 kts 12°
2026-05-05 16:33 49.44465 9.21564 19833 ft 477 kts 12°
2026-05-05 16:33 49.47715 9.22588 19832 ft 477 kts 12°
2026-05-05 16:33 49.50971 9.23615 19836 ft 477 kts 12°
2026-05-05 16:34 49.54223 9.24641 19834 ft 477 kts 12°
2026-05-05 16:34 49.57468 9.25667 19724 ft 469 kts 12°
2026-05-05 16:34 49.60609 9.26660 19556 ft 452 kts 12°
2026-05-05 16:34 49.63616 9.27612 19361 ft 432 kts 12°
2026-05-05 16:35 49.66455 9.28512 19150 ft 411 kts 12°
2026-05-05 16:35 49.69205 9.29386 18697 ft 399 kts 12°
2026-05-05 16:35 49.71915 9.30251 17985 ft 396 kts 12°
2026-05-05 16:35 49.74593 9.31109 17198 ft 391 kts 12°
2026-05-05 16:36 49.77246 9.31956 16500 ft 386 kts 12°
2026-05-05 16:36 49.79862 9.32773 15795 ft 382 kts
2026-05-05 16:36 49.81198 9.32940 15416 ft 381 kts 360°
2026-05-05 16:36 49.83796 9.32316 14801 ft 375 kts 346°
2026-05-05 16:37 49.86357 9.31688 14070 ft 373 kts 359°
2026-05-05 16:37 49.88930 9.31777 13446 ft 367 kts
2026-05-05 16:37 49.91468 9.31923 12742 ft 363 kts
2026-05-05 16:37 49.93980 9.32071 12042 ft 359 kts
2026-05-05 16:38 49.96467 9.32227 11366 ft 356 kts
2026-05-05 16:38 49.98931 9.32379 10730 ft 352 kts
2026-05-05 16:38 50.01365 9.32528 10104 ft 348 kts
2026-05-05 16:38 50.03678 9.32837 9462 ft 344 kts 13°
2026-05-05 16:39 50.05689 9.34097 8880 ft 338 kts 30°
2026-05-05 16:39 50.07630 9.35833 8240 ft 335 kts 31°
2026-05-05 16:39 50.09629 9.37654 7950 ft 335 kts 32°
2026-05-05 16:39 50.11565 9.39692 7825 ft 335 kts 37°
2026-05-05 16:40 50.12645 9.40913 7655 ft 333 kts 37°
2026-05-05 16:40 50.14576 9.42755 7153 ft 330 kts 21°
2026-05-05 16:40 50.16813 9.43436 6549 ft 327 kts 359°
2026-05-05 16:40 50.19011 9.42740 5973 ft 320 kts 336°
2026-05-05 16:41 50.20822 9.40812 5296 ft 315 kts 311°
2026-05-05 16:41 50.22177 9.38214 4938 ft 301 kts 301°
2026-05-05 16:41 50.22880 9.35310 4838 ft 277 kts 274°
2026-05-05 16:41 50.22872 9.33646 4820 ft 263 kts 260°
2026-05-05 16:42 50.22406 9.30929 4803 ft 242 kts 240°
2026-05-05 16:42 50.21545 9.28754 4708 ft 230 kts 242°
2026-05-05 16:42 50.20808 9.26617 4622 ft 219 kts 238°
2026-05-05 16:42 50.20093 9.24583 4547 ft 209 kts 239°
2026-05-05 16:43 50.19427 9.22589 4356 ft 206 kts 244°
2026-05-05 16:43 50.18855 9.20548 4132 ft 205 kts 248°
2026-05-05 16:43 50.18345 9.18467 3919 ft 204 kts 245°
2026-05-05 16:43 50.17788 9.16450 3822 ft 199 kts 246°
2026-05-05 16:44 50.17279 9.14479 3819 ft 204 kts 248°
2026-05-05 16:44 50.16783 9.12408 3820 ft 204 kts 248°
2026-05-05 16:44 50.16290 9.10329 3830 ft 204 kts 248°
2026-05-05 16:44 50.15792 9.08227 3825 ft 205 kts 248°
2026-05-05 16:45 50.15306 9.06191 3825 ft 201 kts 247°
2026-05-05 16:45 50.14811 9.04097 3825 ft 208 kts 248°
2026-05-05 16:45 50.14321 9.02027 3825 ft 200 kts 248°
2026-05-05 16:45 50.13824 8.99936 3825 ft 207 kts 248°
2026-05-05 16:46 50.13342 8.97900 3829 ft 205 kts 248°
2026-05-05 16:46 50.12841 8.95784 3824 ft 200 kts 248°
2026-05-05 16:46 50.12349 8.93723 3833 ft 208 kts 248°
2026-05-05 16:46 50.11851 8.91628 3826 ft 201 kts 248°
2026-05-05 16:47 50.11368 8.89591 3816 ft 199 kts 248°
2026-05-05 16:47 50.10899 8.87611 3756 ft 189 kts 248°
2026-05-05 16:47 50.10449 8.85715 3561 ft 185 kts 249°
2026-05-05 16:47 50.10000 8.83832 3485 ft 189 kts 248°
2026-05-05 16:48 50.09550 8.81943 3402 ft 185 kts 248°
2026-05-05 16:48 50.09098 8.80040 3218 ft 187 kts 248°
2026-05-05 16:48 50.08653 8.78172 2998 ft 186 kts 249°
2026-05-05 16:48 50.08077 8.76398 2775 ft 182 kts 226°
2026-05-05 16:49 50.06940 8.75523 2729 ft 195 kts 186°
2026-05-05 16:49 50.05600 8.75929 3433 ft 197 kts 163°
2026-05-05 16:49 50.04355 8.76601 4234 ft 194 kts 163°
2026-05-05 16:49 50.03081 8.77309 4633 ft 195 kts 163°
2026-05-05 16:50 50.01803 8.78016 4790 ft 195 kts 163°
2026-05-05 16:50 50.00616 8.79030 4839 ft 206 kts 136°
2026-05-05 16:50 50.00044 8.80359 4841 ft 236 kts 115°
2026-05-05 16:50 49.99821 8.82928 4841 ft 248 kts 83°
2026-05-05 16:51 50.00274 8.85505 4832 ft 246 kts 73°
2026-05-05 16:51 50.00788 8.88054 4835 ft 248 kts 73°
2026-05-05 16:51 50.01305 8.90608 4834 ft 248 kts 73°
2026-05-05 16:51 50.01822 8.93157 4834 ft 248 kts 73°
2026-05-05 16:52 50.02343 8.95718 4833 ft 247 kts 73°
2026-05-05 16:52 50.02857 8.98271 4833 ft 248 kts 73°
2026-05-05 16:52 50.03431 9.00794 4832 ft 248 kts 62°
2026-05-05 16:52 50.04585 9.02757 4832 ft 249 kts 35°
2026-05-05 16:53 50.06019 9.04282 4828 ft 247 kts 33°
2026-05-05 16:53 50.07410 9.05740 4831 ft 252 kts 33°
2026-05-05 16:53 50.08826 9.07204 4823 ft 249 kts 33°
2026-05-05 16:53 50.10428 9.08161 4822 ft 248 kts
2026-05-05 16:54 50.12106 9.07793 4831 ft 243 kts 335°
2026-05-05 16:54 50.13680 9.06764 4830 ft 245 kts 330°
2026-05-05 16:54 50.14874 9.04985 4826 ft 237 kts 293°
2026-05-05 16:54 50.15089 9.02563 4817 ft 229 kts 255°
2026-05-05 16:55 50.14389 9.00389 4667 ft 224 kts 234°
2026-05-05 16:55 50.13576 8.98306 4559 ft 223 kts 240°
2026-05-05 16:55 50.12937 8.96150 4456 ft 215 kts 245°
2026-05-05 16:55 50.12417 8.94017 4357 ft 207 kts 248°
2026-05-05 16:56 50.11919 8.91929 4263 ft 205 kts 247°
2026-05-05 16:56 50.11422 8.89838 4181 ft 206 kts 248°
2026-05-05 16:56 50.10934 8.87767 4074 ft 201 kts 248°
2026-05-05 16:56 50.10445 8.85710 3922 ft 203 kts 248°
2026-05-05 16:57 50.09949 8.83619 3686 ft 206 kts 248°
2026-05-05 16:57 50.09453 8.81535 3441 ft 205 kts 248°
2026-05-05 16:57 50.08956 8.79447 3183 ft 205 kts 248°
2026-05-05 16:57 50.08466 8.77388 2921 ft 205 kts 249°
2026-05-05 16:58 50.07978 8.75334 2665 ft 197 kts 248°
2026-05-05 16:58 50.07524 8.73423 2407 ft 177 kts 249°
2026-05-05 16:58 50.07123 8.71740 2172 ft 155 kts 249°
2026-05-05 16:58 50.06752 8.70178 1965 ft 153 kts 249°
2026-05-05 16:59 50.06381 8.68622 1759 ft 155 kts 249°
2026-05-05 16:59 50.06010 8.67064 1555 ft 152 kts 249°
2026-05-05 16:59 50.05643 8.65522 1349 ft 153 kts 248°
2026-05-05 16:59 50.05278 8.63989 1132 ft 147 kts 249°
2026-05-05 17:00 50.04928 8.62532 936 ft 145 kts 250°
2026-05-05 17:00 50.04574 8.61078 755 ft 142 kts 250°
2026-05-05 17:00 50.04230 8.59622 540 ft 144 kts 251°
2026-05-05 17:00 50.03887 8.58148 382 ft 145 kts 249°
2026-05-05 17:01 50.03625 8.57048 361 ft 47 kts 249°
2026-05-05 17:01 50.03517 8.56597 362 ft 43 kts 249°
2026-05-05 17:01 50.03425 8.56176 357 ft 35 kts 268°
2026-05-05 17:01 50.03447 8.55960 359 ft 0 kts 288°
2026-05-05 17:03 50.03448 8.55954 357 ft 3 kts 287°
2026-05-05 17:03 50.03457 8.55881 353 ft 13 kts 279°
2026-05-05 17:03 50.03479 8.55659 358 ft 26 kts 278°
2026-05-05 17:04 50.03489 8.55595 351 ft 7 kts 300°
2026-05-05 17:04 50.03504 8.55580 356 ft 1 kts 356°
2026-05-05 17:04 50.03540 8.55614 361 ft 8 kts 48°
2026-05-05 17:04 50.03568 8.55705 357 ft 11 kts 74°
2026-05-05 17:05 50.03583 8.55851 359 ft 20 kts 71°
2026-05-05 17:05 50.03645 8.56101 363 ft 30 kts 68°
2026-05-05 17:05 50.03717 8.56407 359 ft 32 kts 69°
2026-05-05 17:05 50.03793 8.56730 358 ft 29 kts 70°
2026-05-05 17:06 50.03869 8.57046 362 ft 32 kts 70°
2026-05-05 17:06 50.03946 8.57368 358 ft 31 kts 69°
2026-05-05 17:06 50.04015 8.57659 358 ft 29 kts 70°
2026-05-05 17:06 50.04087 8.57959 357 ft 30 kts 69°
2026-05-05 17:07 50.04161 8.58266 359 ft 31 kts 69°
2026-05-05 17:07 50.04226 8.58533 362 ft 0 kts 69°
2026-05-05 17:07 50.04230 8.58549 361 ft 4 kts 69°
2026-05-05 17:08 50.04247 8.58619 361 ft 12 kts 69°
2026-05-05 17:08 50.04285 8.58781 359 ft 19 kts 70°
2026-05-05 17:08 50.04340 8.59009 351 ft 25 kts 69°
2026-05-05 17:08 50.04402 8.59269 358 ft 26 kts 70°
2026-05-05 17:09 50.04482 8.59473 363 ft 16 kts 17°
2026-05-05 17:09 50.04580 8.59469 359 ft 15 kts 358°
2026-05-05 17:09 50.04699 8.59446 363 ft 19 kts 347°
2026-05-05 17:09 50.04730 8.59430 362 ft 0 kts 341°
2026-05-05 17:10 50.04732 8.59429 361 ft 2 kts 340°
2026-05-05 17:10 50.04765 8.59409 359 ft 2 kts 339°
2026-05-05 17:10 50.04766 8.59409 359 ft 0 kts 339°
2026-05-05 17:11 50.04769 8.59407 358 ft 2 kts 339°
2026-05-05 17:11 50.04782 8.59399 356 ft 0 kts 338°
2026-05-05 17:12 50.04785 8.59397 361 ft 2 kts 336°
2026-05-05 17:12 50.04833 8.59336 353 ft 15 kts 298°
2026-05-05 17:12 50.04907 8.59194 350 ft 8 kts 347°
2026-05-05 17:13 50.04909 8.59193 350 ft 0 kts 345°